RH
66 53 43 48 38 27 50 100 100 100 100 100 99 86 68 54 77 83 88 58 70 96 97 82 59 73 100 100 93 99 78 44 31 28 24 24 19 28 47 53 55 68 49 44 62 88 100
85 72 60 63 52 42 28 51 86 100 100 100 100 100 97 96 90 100 100 98 100 100 79 66 75 93 100 100 98 90 55 42 38 32 26 22 19 28 52 64 67 83 71 80 96 100 100
96 100 78 74 75 61 38 21 41 80 100 100 100 100 100 100 100 100 100 100 100 100 79 79 89 88 100 87 84 59 52 46 40 30 28 21 20 29 52 54 79 97 94 92 100 100 100
100 94 97 93 96 82 57 25 26 38 50 79 89 87 82 87 83 75 100 100 100 100 100 90 89 89 93 86 75 73 66 55 43 26 32 19 19 31 56 65 98 99 82 99 100 100 98
100 100 97 95 95 98 85 48 29 34 33 42 77 63 69 75 66 73 84 94 96 98 100 100 96 100 97 94 76 70 61 56 46 28 37 21 18 32 67 69 86 100 68 89 81 92 100
100 100 100 100 99 87 95 92 51 45 54 46 45 58 52 65 68 76 80 92 84 77 86 100 100 94 95 97 72 60 59 57 44 35 39 22 19 33 62 72 91 82 100 84 97 100 100
100 100 100 100 100 100 100 95 90 75 73 66 74 74 77 93 77 94 94 89 93 73 72 90 99 89 85 80 66 63 72 54 42 35 41 22 19 35 57 76 84 87 100 100 92 84 86
100 100 100 100 100 100 100 100 98 94 100 99 84 85 99 99 100 100 100 100 98 64 52 53 100 100 98 78 62 88 66 63 53 34 43 26 21 34 40 76 87 97 94 100 100 93 86
82 76 70 100 100 100 100 100 100 100 100 100 100 100 100 100 100 98 97 76 72 92 50 50 100 100 98 70 87 91 61 71 66 41 40 28 22 32 40 69 96 100 94 100 94 84 88
100 98 99 100 97 100 100 100 100 100 100 94 92 98 76 83 79 57 51 79 65 52 58 45 71 100 100 73 99 82 58 87 75 53 38 23 25 23 46 46 87 84 86 96 97 100 99
30 33 37 60 75 67 50 85 70 82 79 57 62 54 63 39 34 51 33 40 62 46 46 40 52 74 100 100 92 63 67 82 78 58 38 23 26 19 47 50 64 84 96 100 97 83 98
11 13 15 19 23 29 35 44 33 29 31 31 34 42 31 26 33 28 36 42 44 34 40 40 46 99 100 100 82 67 66 97 78 57 39 22 22 22 32 58 57 74 92 87 100 79 97
7 8 10 11 11 14 20 24 22 19 23 25 24 29 21 28 30 29 50 65 58 44 53 45 61 68 100 100 91 67 93 100 79 48 34 21 21 27 20 56 60 61 92 78 82 91 91
5 5 5 6 6 8 15 15 15 20 22 23 26 24 26 28 28 38 54 73 95 57 77 85 93 84 79 77 76 93 100 100 70 43 36 27 23 26 22 38 59 60 78 77 95 100 100
5 5 5 5 5 6 6 8 12 14 18 24 27 22 29 31 36 39 44 46 100 100 100 100 96 100 98 84 64 88 100 99 60 49 38 28 23 26 23 21 44 63 62 76 84 94 100
3 4 4 4 5 6 6 7 8 9 13 20 20 24 29 35 53 43 39 69 100 100 100 100 100 97 100 67 65 99 100 94 67 58 43 33 27 26 25 22 22 48 58 66 78 80 83
3 3 3 3 4 5 5 6 7 7 9 13 16 23 29 33 39 36 48 79 100 100 100 100 100 100 100 77 92 100 100 87 70 63 50 39 35 25 27 25 20 21 46 64 77 83 81
2 2 2 2 3 3 4 5 7 6 7 8 12 18 28 36 31 45 58 99 100 100 100 100 100 100 100 100 100 100 100 99 93 72 58 42 34 26 26 26 24 29 23 45 63 89 100
2 2 2 2 2 2 3 4 6 6 6 7 8 16 27 37 17 51 80 91 100 100 100 100 100 100 100 100 100 100 100 100 90 73 58 45 38 26 29 26 24 39 39 22 45 57 64
2 2 2 2 2 2 2 4 5 6 6 7 7 12 24 25 26 54 99 100 100 100 100 100 100 100 100 100 100 100 100 100 85 71 50 51 42 28 30 26 29 48 52 37 22 26 31
1 2 2 2 2 2 2 3 4 6 6 5 5 8 19 22 24 66 100 100 100 90 98 100 100 100 100 100 100 100 100 99 80 64 58 54 42 31 29 25 28 62 58 58 50 38 38
1 1 2 2 2 2 2 3 4 5 5 4 4 8 13 27 31 53 100 100 100 88 97 100 100 100 100 100 100 100 100 97 78 69 64 58 46 30 35 26 28 62 50 42 47 57 64
1 1 2 2 2 2 2 2 3 5 4 3 4 7 13 24 27 40 71 100 100 100 100 100 100 100 100 100 100 100 100 91 86 82 70 70 55 39 34 34 28 55 54 52 33 22 32
1 1 1 2 2 2 2 2 3 4 4 4 4 7 12 15 27 58 100 100 100 100 100 100 100 100 100 100 100 100 100 89 69 66 81 70 57 37 40 43 37 36 48 49 35 29 34
1 1 1 2 2 2 2 2 2 4 4 4 4 6 12 20 38 78 99 100 100 100 100 100 100 100 100 100 100 100 100 77 71 91 84 71 55 47 50 40 38 52 44 48 55 55 51
1 2 2 2 2 2 2 2 2 4 4 4 5 7 12 21 36 84 100 100 100 100 100 100 100 100 99 99 90 90 88 79 88 92 80 68 59 53 52 39 38 50 49 52 64 96 56
1 2 2 2 2 2 2 2 2 3 3 3 4 6 9 22 38 89 98 100 100 100 100 100 100 79 80 95 98 94 96 99 91 87 75 65 63 58 61 52 45 52 52 54 77 86 76
2 2 2 2 2 2 2 2 2 3 3 3 4 5 10 22 37 88 100 100 100 100 100 100 100 90 93 97 85 100 100 100 100 97 86 74 59 65 57 57 66 48 49 58 56 77 81
2 2 2 2 2 2 2 2 3 3 3 3 4 4 10 22 27 66 100 100 100 100 100 100 100 100 100 100 99 100 100 100 100 95 93 79 60 63 64 62 69 62 51 55 63 57 56
Wind_Speed
54 55 51 48 50 45 55 58 57 58 59 61 65 61 63 66 58 60 63 64 62 57 56 58 57 54 55 54 60 60 64 67 69 76 76 74 64 53 42 20 10 1 3 10 18 22 25
59 60 57 56 48 51 51 59 60 54 52 56 53 50 54 52 55 55 53 57 57 57 59 57 55 54 52 55 58 60 65 66 68 74 73 73 57 48 31 17 10 2 8 15 26 22 27
67 65 61 61 54 52 48 59 61 59 57 56 54 49 47 47 45 51 48 49 56 58 57 59 55 55 55 56 59 60 63 65 70 69 70 67 50 42 25 14 4 3 12 20 23 24 31
74 66 70 63 63 59 54 55 52 56 59 60 47 43 43 46 44 48 48 47 50 53 55 57 57 57 58 58 61 61 61 64 65 66 68 65 47 39 24 9 2 8 10 17 19 22 20
80 74 73 73 68 67 68 58 56 53 57 60 57 55 62 58 59 59 46 49 51 51 47 49 52 54 54 53 55 56 58 60 61 63 66 63 46 37 22 9 6 7 7 9 13 20 15
82 87 82 82 82 83 79 68 68 66 63 62 64 66 62 67 64 53 49 54 58 53 49 52 50 50 52 50 52 56 56 56 57 59 64 59 42 32 20 10 13 8 10 7 12 15 15
94 96 95 94 93 87 82 83 75 72 70 71 71 67 67 65 67 67 59 61 61 62 62 58 57 52 50 49 52 55 54 53 55 56 59 55 40 28 17 14 10 10 11 12 13 17 20
106 109 108 103 101 98 95 86 82 81 77 77 77 75 71 70 72 76 76 68 71 64 67 72 58 50 48 50 50 52 51 50 52 54 54 53 42 25 18 11 11 11 12 11 15 19 16
123 127 121 115 110 100 98 101 91 87 85 84 82 81 86 81 88 90 84 86 82 81 73 68 53 48 48 50 45 46 47 47 50 54 52 53 41 22 20 10 11 14 16 19 17 20 17
130 132 128 123 117 115 113 111 110 109 109 104 102 102 100 100 100 100 100 102 91 90 83 72 54 54 42 44 45 46 46 45 48 53 49 48 41 23 21 16 11 12 15 18 21 24 24
137 136 136 136 136 138 133 126 121 122 125 123 116 110 113 115 109 107 103 100 97 88 88 73 60 49 52 48 48 47 44 44 46 48 48 45 45 25 18 20 12 12 15 15 19 20 25
120 121 124 125 127 129 132 132 128 128 121 124 115 117 108 99 98 99 95 94 86 82 72 65 58 50 54 53 49 45 43 44 44 42 44 44 40 29 19 18 15 15 14 14 18 21 20
113 112 114 114 114 117 119 119 118 110 106 104 101 95 90 91 92 89 84 79 73 67 63 58 52 53 54 50 45 40 42 41 39 39 39 41 41 37 19 20 20 18 16 16 19 22 23
106 106 105 107 106 102 107 110 110 107 106 101 96 90 86 88 91 84 86 82 69 62 56 52 53 54 50 48 39 40 42 39 36 37 36 42 40 41 23 20 23 19 17 18 22 25 25
97 97 99 100 99 98 101 103 105 104 99 98 94 89 84 87 91 88 91 82 65 58 54 53 52 50 48 44 42 41 44 36 36 36 37 41 40 41 29 21 24 23 19 17 21 25 29
89 92 92 91 92 94 96 98 101 98 95 95 93 90 82 92 92 92 83 76 69 69 58 57 54 49 47 42 43 44 43 37 37 36 38 41 40 39 41 25 21 26 23 18 21 25 28
83 86 90 88 87 87 89 92 96 95 94 96 95 90 83 91 95 93 78 75 71 71 65 64 54 50 56 44 44 46 38 34 35 37 41 45 40 40 40 31 22 22 27 23 22 24 27
79 82 84 86 87 83 84 84 88 93 92 94 91 84 85 92 93 84 79 76 75 75 71 66 59 55 54 49 47 43 39 41 40 38 41 43 45 43 39 35 21 18 26 25 22 26 27
73 77 80 83 85 81 80 80 84 89 89 89 88 84 89 95 82 79 78 78 79 76 73 67 59 56 56 52 49 45 46 42 42 40 42 44 45 42 42 34 24 20 23 27 30 32 34
68 69 75 78 81 79 77 77 80 85 87 87 88 91 93 86 72 80 81 74 78 76 74 66 61 57 57 48 49 45 43 41 44 40 43 42 45 43 39 33 21 20 22 25 28 29 31
63 62 69 74 76 76 72 75 78 82 84 84 85 88 83 76 68 75 77 76 81 80 75 65 62 58 57 54 51 47 45 46 45 43 41 44 45 42 38 33 25 22 23 21 21 23 27
59 57 61 67 71 73 68 72 76 80 83 83 79 81 79 78 77 82 82 73 72 81 78 68 61 61 61 57 54 50 49 48 45 43 42 47 46 39 37 34 29 21 22 25 27 25 25
54 52 54 61 66 69 67 70 73 78 81 76 69 74 76 82 79 79 77 66 63 73 74 69 67 65 59 57 58 57 51 45 43 43 44 43 47 40 37 34 28 25 30 27 27 23 24
47 49 52 54 61 66 63 69 71 71 70 73 68 72 73 75 80 75 77 70 61 66 70 68 68 63 60 62 60 56 52 47 43 43 43 44 47 45 39 37 30 31 28 25 23 26 25
40 43 47 49 57 60 60 63 65 67 72 70 65 69 73 80 82 82 78 71 71 70 68 68 67 66 65 63 62 58 50 44 42 44 45 45 46 46 44 39 34 31 33 25 21 26 25
36 40 42 47 53 55 57 58 61 65 70 67 66 71 73 82 85 86 82 76 69 69 71 62 68 73 66 65 63 55 48 45 45 47 48 47 48 50 45 41 38 33 33 30 21 22 31
35 39 43 46 49 53 54 54 59 64 68 66 65 71 72 83 89 87 83 80 73 71 66 69 74 74 69 61 55 51 50 51 50 48 49 52 50 49 46 44 38 35 39 35 29 37 32
36 39 42 45 47 50 50 52 57 62 66 66 67 72 72 81 90 92 88 82 75 72 66 65 70 65 61 58 54 46 48 49 48 47 47 50 52 50 52 45 38 39 36 39 39 37 37
33 37 39 42 44 47 48 52 56 61 63 64 66 68 71 81 86 91 87 82 77 76 76 72 64 58 52 55 53 49 49 47 47 49 49 52 54 52 52 47 45 44 40 41 42 41 39
Wind_Direction
274 275 277 278 282 289 269 261 261 264 264 266 269 272 272 270 276 273 274 276 279 279 283 286 290 295 300 299 300 304 312 318 323 328 334 338 335 332 332 335 329 14 204 177 161 153 155
272 267 270 277 275 289 282 263 263 262 263 264 263 269 271 271 272 271 274 278 277 276 283 284 290 290 292 295 298 306 309 316 321 327 333 338 334 331 333 329 320 72 139 150 151 150 166
274 271 268 271 264 275 285 271 260 259 260 264 265 262 262 266 268 271 276 278 278 279 282 285 287 285 288 292 297 301 308 315 319 326 334 339 334 330 331 323 335 159 130 152 155 165 179
266 269 272 265 260 268 276 266 262 261 264 263 260 265 269 279 273 285 277 280 281 284 281 283 286 283 284 290 297 303 308 315 319 327 334 341 335 329 332 317 243 249 151 154 180 178 176
262 264 268 266 264 265 271 263 254 257 261 262 256 267 267 273 277 285 278 286 282 281 286 282 282 281 286 293 297 302 308 314 319 326 332 339 334 331 332 316 206 252 235 204 182 192 198
260 269 265 265 266 268 267 257 256 257 260 258 257 268 271 273 274 273 271 286 287 291 291 287 285 284 287 289 296 299 308 313 317 324 330 339 333 330 329 308 257 255 284 257 209 219 218
261 266 266 266 265 263 261 264 259 251 258 256 257 257 264 266 272 273 269 276 277 279 292 289 285 286 286 288 293 300 305 313 317 324 329 339 334 325 322 308 269 257 258 259 231 232 220
258 261 264 261 262 263 261 256 254 256 253 255 256 257 259 264 266 270 273 272 275 277 283 292 280 280 282 287 293 299 305 311 315 322 329 335 334 324 318 313 262 256 258 264 244 238 220
259 261 264 257 255 250 251 256 248 249 254 255 255 257 263 264 269 272 270 271 273 273 274 282 274 275 284 284 293 297 304 309 313 321 327 335 334 320 306 306 275 253 250 247 244 239 227
261 262 260 259 254 254 254 253 252 254 256 255 256 260 261 263 265 267 268 269 269 274 277 278 275 279 275 286 288 293 299 304 311 318 328 336 337 312 304 289 283 274 257 256 248 240 233
266 265 263 260 257 261 260 254 256 257 261 259 258 258 259 268 264 263 266 262 266 269 270 271 276 270 264 274 281 290 294 299 308 313 324 330 336 315 308 292 277 283 269 263 253 252 236
262 261 259 260 262 262 262 261 261 262 258 259 259 259 259 258 253 256 254 256 258 261 263 264 268 264 262 270 278 285 290 294 302 309 324 331 333 323 298 285 262 254 257 248 234 236 231
262 260 258 257 255 254 256 257 257 254 254 252 253 250 252 249 246 245 246 245 244 253 250 258 256 260 261 267 272 280 284 289 298 307 322 325 331 330 298 279 271 262 249 247 231 230 233
258 257 255 254 255 250 249 251 249 248 249 248 246 246 245 243 240 237 237 237 239 237 242 243 249 256 259 264 271 273 281 288 294 302 314 320 327 330 304 273 276 275 257 244 229 230 233
257 255 254 251 248 248 246 245 245 244 244 241 239 240 237 237 237 234 233 233 231 229 232 243 245 245 256 261 263 271 278 283 290 299 307 317 324 325 322 281 265 269 263 249 239 229 231
253 252 251 249 246 243 243 240 240 238 237 235 235 234 231 233 233 231 232 223 223 229 225 233 242 247 249 254 264 265 272 277 286 295 304 313 321 317 328 296 269 260 262 250 238 242 244
248 246 247 246 244 241 238 236 236 234 232 232 230 228 226 229 230 231 224 219 220 226 221 225 231 239 244 257 256 258 265 273 283 291 300 308 311 316 316 314 285 271 262 253 243 240 244
246 244 240 242 242 238 235 233 231 230 227 228 227 221 223 226 229 226 220 217 217 224 222 223 227 235 244 245 251 253 265 273 280 288 294 303 309 315 314 316 283 267 259 249 245 243 244
244 241 239 238 238 236 233 228 228 227 225 225 223 217 217 221 225 219 218 218 218 223 224 224 228 233 241 245 248 252 262 270 276 283 291 298 305 310 320 317 284 275 279 261 241 243 245
244 238 236 235 234 234 230 225 224 223 223 222 220 216 214 219 217 213 215 218 218 223 224 226 228 232 237 241 245 252 260 267 273 279 288 295 301 309 318 322 291 273 275 269 259 255 255
244 237 231 230 231 231 226 223 220 219 221 219 221 217 212 215 216 212 212 217 217 219 222 223 226 229 236 241 246 251 256 262 269 276 283 291 298 307 313 317 297 272 275 271 263 259 255
241 234 228 227 225 228 225 221 217 216 217 218 217 215 210 206 210 208 211 216 220 221 221 224 225 230 234 241 246 249 254 259 266 273 282 287 296 305 310 318 313 270 271 264 260 255 256
235 231 225 223 223 224 222 216 216 214 216 216 211 213 207 202 209 210 209 210 217 221 223 225 224 229 232 237 242 247 252 256 261 269 278 285 292 301 304 310 311 262 253 261 266 267 261
226 224 221 219 218 220 219 215 212 211 212 213 204 208 207 204 207 204 206 208 209 218 219 220 224 228 232 238 243 248 252 255 262 271 273 282 290 297 301 305 301 278 264 259 266 262 256
216 213 212 211 214 217 215 215 209 205 210 209 200 203 201 198 199 202 201 202 206 212 214 218 221 225 228 232 237 242 246 253 262 264 273 278 285 293 297 305 300 277 268 262 259 269 268
200 201 201 203 209 211 211 211 205 200 206 202 197 198 199 195 197 199 198 201 206 214 218 217 222 224 227 231 238 246 254 256 258 264 272 276 284 290 295 302 300 281 270 263 251 270 260
190 190 193 198 203 206 207 205 200 199 201 198 193 196 197 194 195 197 198 199 205 211 215 221 227 228 230 232 239 249 255 256 259 262 269 276 281 287 291 299 299 287 274 260 255 258 269
181 185 189 194 198 201 200 198 197 196 197 194 191 196 194 193 195 195 198 199 205 211 213 218 224 229 233 237 241 240 243 249 253 260 267 273 282 286 289 295 294 290 281 263 256 259 266
176 180 185 189 193 195 195 193 193 193 195 192 191 194 193 194 196 195 198 200 205 210 210 216 223 221 222 230 237 235 239 246 252 258 265 272 277 284 289 292 289 286 284 274 263 260 265